Location: Minneapolis
(45.0000°N, 93.0000°W)
Time: 00:48:44
(UTC-05:00)

N. Korean satellite - Pass Details

Date: 12 March 2018
Orbit: 459 x 511 km, 97.2° (Epoch: 24 June)

Event Time Altitude Azimuth Distance (km) Brightness Sun altitude
Rises 06:54:18 0° 29° (NNE) 2,634 10.8 -7.1°
Reaches altitude 10° 06:57:01 10° 50° (NE) 1,742 10.3 -6.7°
Maximum altitude 06:59:30 17° 92° (E) 1,363 10.3 -6.2°
Drops below altitude 10° 07:01:58 10° 133° (SE) 1,729 10.1 -5.8°
Sets 07:04:38 0° 155° (SSE) 2,603 10.6 -5.3°
